Flag for U.S.A. Weather past 2 weeks in Brockton, Massachusetts, U.S.A.

Now
53 °F

Cool.


Feels Like: 52 °F
Forecast: 44 / 68 °F
Wind: 5 mph from Southeast

Location: East Milton

Current Time: Sep 14, 2014 at 10:11:12 PM

Latest Report: Sep 14, 2014 at 9:54 PM


Visibility: N/A

Pressure: 30.23 "Hg

Humidity: 80%

Dew point: 47 °F

Location of BrocktonLocation

Historic Weather in Brockton — Graph

°F

Brockton temperature yesterday

Maximum temperature yesterday: 66 °F (at 1:54 PM)
Minimum temperature yesterday: 51 °F (at 12:54 AM)
Average temperature yesterday: 58 °F

Past Weeks' High & Low Weather Summary

 TemperatureHumidityPressure
High91 °F (Sep 2, 12:54 PM)100% (Aug 31, 9:54 PM)30.41 "Hg (Aug 31, 9:54 PM)
Low47 °F (Sep 14, 6:54 AM)32% (Sep 4, 12:54 PM)29.74 "Hg (Sep 3, 1:54 AM)
Average69 °F75%30.09 "Hg
* Reported Aug 30 8:54 PM — Sep 14 8:54 PM, Brockton, Weather by CustomWeather, © 2014

Note: Actual official high and low records may vary slightly from our data, if they occured in-between our weather recording intervals... More about our weather records

Advertising

Brockton weather history for previous 24 hours

 ConditionsComfort  
Time TempWeatherWind HumidityBarometerVisibility
8:54 PM
Sep 14
54 °FCool.6 mph74%30.24 "HgN/A
7:54 PM55 °FCool.6 mph74%30.23 "HgN/A
6:54 PM58 °FCool.6 mph60%30.22 "HgN/A
5:54 PM62 °FRefreshingly cool.7 mph50%30.21 "HgN/A
4:54 PM64 °FMild.8 mph45%30.20 "HgN/A
3:54 PM64 °FMild.5 mph45%30.20 "HgN/A
2:54 PM64 °FMild.5 mph47%30.20 "HgN/A
1:54 PM63 °FMild.9 mph47%30.21 "HgN/A
12:54 PM62 °FRefreshingly cool.9 mph52%30.21 "HgN/A
11:54 AM59 °FRefreshingly cool.14 mph56%30.22 "HgN/A
10:54 AM56 °FCool.9 mph65%30.24 "HgN/A
9:54 AM54 °FCool.14 mph72%30.24 "HgN/A
8:54 AM51 °FCool.13 mph80%30.24 "HgN/A
7:54 AM49 °FCool.10 mph97%30.23 "HgN/A
6:54 AM47 °FCool.14 mph100%30.22 "HgN/A
5:54 AM49 °FCool.15 mph97%30.19 "HgN/A
4:54 AM50 °FCool.12 mph96%30.17 "HgN/A
3:54 AM51 °FCool.12 mph100%30.15 "HgN/A
2:54 AM53 °FCool.12 mph100%30.14 "HgN/A
1:54 AM55 °FCool.8 mph96%30.12 "HgN/A
12:54 AM56 °FCool.9 mph100%30.13 "HgN/A
11:54 PM
Sep 13
57 °FCool.9 mph100%30.14 "HgN/A
10:54 PM58 °FCool.7 mph100%30.14 "HgN/A
Weather by CustomWeather, © 2014

See weather overviewHow to use our weather pages